BX4AEF-8 Weather Reports


time (UTC)temp
C
wind
direction
speed
KPH
gust
KPH
rain 1hr
cm
rain 24hr
cm
rain mn
cm
humidity
%
barometer
mb
20260504081335 34 0.0 0.0 0.00 0.00 0.00 33 989.7
20260504045336 36 0.0 0.0 0.00 0.00 0.00 31 990.4
20260504043336 36 0.0 0.0 0.00 0.00 0.00 32 990.5
20260504041336 35 0.0 0.0 0.00 0.00 0.00 33 990.6
20260504035337 35 0.0 0.0 0.00 0.00 0.00 35 990.6
20260504033336 34 0.0 0.0 0.00 0.00 0.00 35 990.9
20260504031336 33 0.0 0.0 0.00 0.00 0.00 36 990.9
20260504025336 33 0.0 0.0 0.00 0.00 0.00 36 991.3
20260504023336 33 0.0 0.0 0.00 0.00 0.00 36 991.0
20260504021336 33 0.0 0.0 0.00 0.00 0.00 37 990.8
20260504015336 33 0.0 0.0 0.00 0.00 0.00 37 990.9
20260504013336 33 0.0 0.0 0.00 0.00 0.00 38 991.1
20260504011336 32 0.0 0.0 0.00 0.00 0.00 39 991.3
20260504005336 32 0.0 0.0 0.00 0.00 0.00 40 991.2
20260504003336 32 0.0 0.0 0.00 0.00 0.00 43 990.9
20260504001335 33 0.0 0.0 0.00 0.00 0.00 40 990.6
20260503235336 33 0.0 0.0 0.00 0.00 0.00 40 990.3
20260503233336 33 0.0 0.0 0.00 0.00 0.00 40 990.4
20260503231335 33 0.0 0.0 0.00 0.00 0.00 41 990.9
20260503225336 33 0.0 0.0 0.00 0.00 0.00 43 990.6
20260503223336 33 0.0 0.0 0.00 0.00 0.00 43 990.2
20260503221336 33 0.0 0.0 0.00 0.00 0.00 43 990.4
20260503215336 33 0.0 0.0 0.00 0.00 0.00 43 990.4
20260503213336 33 0.0 0.0 0.00 0.00 0.00 42 990.3
20260503211336 33 0.0 0.0 0.00 0.00 0.00 42 990.3
20260503205336 33 0.0 0.0 0.00 0.00 0.00 43 990.4
20260503203335 33 0.0 0.0 0.00 0.00 0.00 43 990.1
20260503201336 33 0.0 0.0 0.00 0.00 0.00 44 990.1
20260503195336 33 0.0 0.0 0.00 0.00 0.00 44 989.7
20260503193336 34 0.0 0.0 0.00 0.00 0.00 44 989.6
20260503191336 33 0.0 0.0 0.00 0.00 0.00 45 989.5
20260503185335 33 0.0 0.0 0.00 0.00 0.00 45 989.5
20260503183336 33 0.0 0.0 0.00 0.00 0.00 45 989.5
20260503181336 33 0.0 0.0 0.00 0.00 0.00 45 989.7
20260503175336 33 0.0 0.0 0.00 0.00 0.00 45 989.5
20260503173336 33 0.0 0.0 0.00 0.00 0.00 45 989.7
20260503171336 33 0.0 0.0 0.00 0.00 0.00 45 989.7
20260503131336 34 0.0 0.0 0.00 0.00 0.00 47 988.8